Regional Weather Roundup
Issued by NWS

Home | Current Version | Previous Version | Text Only | Print | Product List | Glossary Off
Versions: 1 2 3 4 5 6 7 8 9 10 11 12 13 14 15 16 17 18 19 20 21 22 23 24 25 26 27 28 29 30 31 32 33 34 35 36 37 38 39 40 41 42 43 44 45 46 47 48 49 50

000
ASUS43 KMKX 270000
RWRWI

WISCONSIN REGIONAL WEATHER ROUNDUP
NATIONAL WEATHER SERVICE MILWAUKEE/SULLIVAN WI
700 PM CDT FRI AUG 26 2016

NOTE: "FAIR" INDICATES FEW OR NO CLOUDS BELOW 12,000 FEET WITH NO
SIGNIFICANT WEATHER AND/OR OBSTRUCTIONS TO VISIBILITY.

WIZ001-002-006>008-014>016-023>028-270100-
NORTHWEST WISCONSIN

CITY           SKY/WX    TMP DP  RH WIND       PRES   REMARKS
SUPERIOR ARPT  CLOUDY    70  55  60 SW7       30.10F
ASHLAND        MOCLDY    66  54  65 CALM      30.14S
6HR MIN TEMP:  66; 6HR MAX TEMP:  72;

HAYWARD        PTCLDY    68  52  56 SW6       30.15F
6HR MIN TEMP:  67; 6HR MAX TEMP:  70;

SIREN          CLOUDY    69  53  57 SW5       30.14F
CUMBERLAND     PTCLDY    64  55  72 CALM      30.15F
RICE LAKE      PTCLDY    67  57  71 CALM      30.16F
CHETEK         NOT AVBL
LADYSMITH      PTCLDY    67  56  67 CALM      30.17F
EAU CLAIRE     NOT AVBL
MENOMONIE      CLOUDY    68  57  68 CALM      30.14F
6HR MIN TEMP:  68; 6HR MAX TEMP:  72;

NEW RICHMOND   CLOUDY    67  56  65 CALM      30.14F
OSCEOLA        CLOUDY    69  57  65 S3        30.16F
$$

WIZ003>005-009-010-017-018-270100-
NORTH CENTRAL WISCONSIN

CITY           SKY/WX    TMP DP  RH WIND       PRES   REMARKS
MANITOWISH WTR NOT AVBL
ARBOR VITAE    PTCLDY    64  53  65 CALM      30.16F
WOODRUFF       PTCLDY    64  53  65 CALM      30.16F
RHINELANDER    PTCLDY    66  54  65 CALM      30.17S
6HR MIN TEMP:  66; 6HR MAX TEMP:  71;

EAGLE RIVER    PTCLDY    63  50  63 CALM      30.16S
LAND O LAKES   PTCLDY    65  48  54 N6        30.17S
PHILLIPS       CLOUDY    64  55  73 CALM      30.16S
6HR MIN TEMP:  64; 6HR MAX TEMP:  68;

TOMAHAWK       MOCLDY    67  52  58 CALM      30.17S
MEDFORD        PTCLDY    65  55  71 CALM      30.16S
MERRILL        PTCLDY    67  56  68 CALM      30.17S
6HR MIN TEMP:  67; 6HR MAX TEMP:  71;

$$

WIZ029-030-035-036-043>047-270100-
CENTRAL WISCONSIN

CITY           SKY/WX    TMP DP  RH WIND       PRES   REMARKS
WAUSAU         CLOUDY    67  53  61 SW5       30.14S
6HR MIN TEMP:  67; 6HR MAX TEMP:  73;

MOSINEE        CLEAR     66  57  72 W3        30.17R
MARSHFIELD     CLOUDY    67  56  67 CALM      30.15S
6HR MIN TEMP:  67; 6HR MAX TEMP:  73;

STEVENS POINT  CLOUDY    67  52  59 SW5       30.17R
WAUPACA        CLOUDY    71  56  57 CALM      30.16R
WAUTOMA        CLOUDY    67  59  75 NE3       30.15S
6HR MIN TEMP:  67; 6HR MAX TEMP:  73;

WISC RAPIDS    CLOUDY    66  61  84 CALM      30.17R
6HR MIN TEMP:  66; 6HR MAX TEMP:  72;

CAMP DOUGLAS   NOT AVBL
$$

WIZ011>013-019>022-031-037>040-048>050-270100-
NORTHEAST WISCONSIN

CITY           SKY/WX    TMP DP  RH WIND       PRES   REMARKS
ANTIGO         CLOUDY    66  52  60 CALM      30.16S
SHAWANO        CLOUDY    71  56  59 CALM      30.14S
OCONTO         NOT AVBL
STURGEON BAY   CLOUDY    69  58  67 SW5       30.14S
6HR MIN TEMP:  69; 6HR MAX TEMP:  73;

GREEN BAY      CLOUDY    68  62  81 SW3       30.15R
6HR MIN TEMP:  68; 6HR MAX TEMP:  73;

MANITOWOC      NOT AVBL
APPLETON       MOCLDY    68  54  60 CALM      30.14F
CLINTONVILLE   CLOUDY    68  55  64 SW3       30.14S
OSHKOSH        CLOUDY    69  57  65 CALM      30.14S
6HR MIN TEMP:  69; 6HR MAX TEMP:  73;

$$

WIZ032>034-041-042-053>061-270100-
SOUTHWEST WISCONSIN

CITY           SKY/WX    TMP DP  RH WIND       PRES   REMARKS
LA CROSSE      CLOUDY    73  58  59 CALM      30.13S
6HR MIN TEMP:  71; 6HR MAX TEMP:  76;

SPARTA         PTCLDY    69  60  72 CALM      30.15S
VIROQUA        CLOUDY    67  61  80 CALM      30.15F
6HR MIN TEMP:  67; 6HR MAX TEMP:  71;

BOSCOBEL       CLOUDY    69  64  84 CALM      30.13F
6HR MIN TEMP:  69; 6HR MAX TEMP:  73; 6HR PCP: TRACE;

PRAIRIE DU CHI CLOUDY    66  61  83 CALM      30.13S
PLATTEVILLE    MOCLDY    68  64  88 N6        30.13F
$$

WIZ056-057-062-063-064-067-068-270100-
SOUTH CENTRAL WISCONSIN

CITY           SKY/WX    TMP DP  RH WIND       PRES   REMARKS
REEDSBURG      NOT AVBL
BARABOO/DELLS  CLOUDY    67  59  75 CALM      30.15S
LONE ROCK      NOT AVBL
MINERAL POINT  MOCLDY    68  63  83 CALM      30.15F
MADISON        CLOUDY    69  61  75 N5        30.14R
6HR MIN TEMP:  69; 6HR MAX TEMP:  75;

MIDDLETON      CLOUDY    70  62  75 N5        30.14F
WATERTOWN      PTCLDY    70  60  70 NE5       30.13F
MONROE         CLOUDY    70  63  78 NE3       30.13S
JANESVILLE     MOCLDY    73  61  64 NE6       30.12F
$$

WIZ051-052-058>065-066-070>072-270100-
SOUTHEAST WISCONSIN

CITY           SKY/WX    TMP DP  RH WIND       PRES   REMARKS
MILWAUKEE      CLOUDY    70  56  61 E7        30.13F
6HR MIN TEMP:  70; 6HR MAX TEMP:  75;

WAUKESHA       CLEAR     72  57  60 SE8       30.14F
MILWAUKEE/TIMM CLEAR     72  54  53 SE6       30.14F
RACINE         MOCLDY    71  58  63 E8        30.15F
6HR MIN TEMP:  71; 6HR MAX TEMP:  76;

BURLINGTON     CLOUDY    70  60  70 SE8       30.13S
KENOSHA        MOCLDY    70  60  70 E7        30.13F
6HR MIN TEMP:  70; 6HR MAX TEMP:  78;

FOND DU LAC    CLOUDY    70  57  63 NW3       30.14F
6HR MIN TEMP:  70; 6HR MAX TEMP:  73;

SHEBOYGAN      MOCLDY    70  58  65 CALM      30.14F
6HR MIN TEMP:  70; 6HR MAX TEMP:  75;

WEST BEND      CLOUDY    70  57  64 E3        30.15S
JUNEAU         PTCLDY    68  59  73 CALM      30.15F
$$

LSZ147-162-270100-
LAKE SUPERIOR

STATION/POSITION TIME  TEMP    WIND        PRES    WAVE
                       AIR SEA DIR/SP/G            HT/PER
                 (UTC) (F)     (DEG/KT/KT) (MB)    (FT/S)
W MID LAKE BUOY  2250   65 68  170/  8/ 10 1020.4F   1
DEVILS ISLAND    2300   66     140/  7/  9 1020.4F
PORT WING        2300   73     180/  3/  4 1020.0S
SAXON HARBOR     2300   69      CALM  /  2 1020.7S
$$

LMZ867-665-643>646-270100-
LAKE MICHIGAN

STATION/POSITION TIME  TEMP    WIND        PRES    WAVE
                       AIR SEA DIR/SP/G            HT/PER
                 (UTC) (F)     (DEG/KT/KT) (MB)    (FT/S)
CHAMBERS ISLAND  2300   71     190/  3/  6 1020.0R
S GREEN BAY BUOY 2300   72 73  220/ 10/ 12 1019.8
N MID LAKE BUOY  2250   69 71  210/  8/ 10 1019.6R   1
NORTHPORT PIER   2300   69     170/  4/  7 1020.0R
SISTER BAY       2307   72     240/  8/  9   N/A
ALGOMA LAKESHORE 2330          210/ 11/ 11   N/A
KEWAUNEE LAKESHO 2300   62     180/  7/  8 1020.3R
SHEBOYGAN LAKESH 2300   67     180/  7/  7 1020.6R
PORT WASHINGTON  2300   69      CALM  /  2 1021.3R
ATWATER BUOY     2300   68     150/  4/  4   N/A
MILWAUKEE LAKESH 2310   67     160/  3/  3   N/A
S MID LAKE BUOY  2250   71 75   60/  6/  6 1020.3R   1
KENOSHA   LAKESH 2300   73     120/  6/  7 1020.0S
$$

TC  - TEMPERATURE IN CELSIUS
VSB - VISIBILITY IN STATUTE MILES
WCI - WIND CHILL INDEX
HX  - HEAT INDEX





USA.gov is the U.S. government's official web portal to all federal, state and local government web resources and services.